Content
SEND FEEDBACK

Daily
Averages
Monthly
Summary
Canada

QUEBEC CITY, QUEBEC


Home > North America > Canada > Quebec
Elevation: 72 meters     Latitude: 46 48N     Longitude: 071 23W

WEATHER
 
SELECT A DAY
Number of Records: 192,085;   Date Range: 6/30/96 - 7/28/14
 
SHARE

PRINT THIS DATA

[ ← Previous Day ]
WEATHER ALMANAC - 4 APRIL, 2013
[ Next Day → ]
[ °F ]   °C
Weather ElementAverageHighLow
Temperature-0.1 °C5 °C (5:00 pm)-6 °C (6:00 am)
Dewpoint-8.9 °C0 °C (11:00 pm)-14 °C (2:00 am)
Humidity49.4 %81 % (9:00 pm)29 % (2:00 pm)
Barometer1016.3 hPa1021.3 hPa (8:00 am)1012.2 hPa (5:00 pm)
Wind Speed22.9 km/h42.6 km/h (4:00 pm)
Wind Gust57.5 km/h (4:00 pm)
Weather ElementAverage
Visibility37.8 km
Wind DirectionWSW (235.2 °)

Weather ElementTotal
Precipitation---
Heating Degree Days18.8 (Base 18.3)
Averaged from 31 records on 4 April, 2013
WEATHER CONDITIONS BREAKOUT
WIND DIRECTION BREAKOUT
WEATHER BY HOUR - 4 APRIL, 2013
[ °F ]   °C
Local TimeTemperatureDewpointHumidityBarometerVisibilityWind DirectionWind SpeedGust SpeedPrecipitationEventsConditions
1:00 AM-3 °C-13 °C47 %1016.9 hPa24.1 kmWest (270°)22.2 km/hClear
2:00 AM-3.3 °C-13.9 °C30 %1017.3 hPaWSW (250°)11.1 km/h
2:00 AM-4 °C-14 °C46 %1017.3 hPa24.1 kmWest (260°)11.1 km/hClear
3:00 AM-4 °C-14 °C46 %1018.6 hPa24.1 kmSSW (210°)14.8 km/hClear
4:00 AM-5 °C-14 °C50 %1019.3 hPa24.1 kmSW (230°)18.5 km/hClear
5:00 AM-5 °C-13.3 °C37 %1019.6 hPaSSW (210°)11.1 km/h
5:00 AM-5 °C-14 °C50 %1020 hPa24.1 kmSW (230°)20.4 km/hClear
6:00 AM-6 °C-14 °C54 %1020.3 hPa24.1 kmWSW (240°)18.5 km/hPartly Cloudy
7:00 AM-5 °C-13 °C54 %1020.7 hPa48.3 kmWSW (250°)24.1 km/hPartly Cloudy
8:00 AM-4.4 °C-12.8 °C39 %1021 hPaSW (230°)18.5 km/h
8:00 AM-4 °C-13 °C50 %1021.3 hPa48.3 kmWSW (250°)20.4 km/hMostly Cloudy
9:00 AM-3 °C-12 °C51 %1020.7 hPa48.3 kmWest (260°)22.2 km/hOvercast
10:00 AM-2 °C-10 °C55 %1020 hPa48.3 kmSW (220°)25.9 km/hMostly Cloudy
11:00 AM0 °C-10 °C34 %1018.3 hPaSW (230°)18.5 km/h
11:00 AM0 °C-11 °C44 %1018.6 hPa48.3 kmSW (230°)31.5 km/hPartly Cloudy
12:00 PM2 °C-10 °C41 %1017.3 hPa48.3 kmWSW (240°)29.6 km/hScattered Clouds
1:00 PM4 °C-9 °C39 %1015.6 hPa48.3 kmWSW (240°)35.2 km/h48.1 km/hMostly Cloudy
2:00 PM2.8 °C-8.9 °C29 %1014.2 hPaSW (230°)27.8 km/h
2:00 PM4 °C-9 °C39 %1014.6 hPa48.3 kmWSW (240°)37 km/hOvercast
3:00 PM4 °C-8 °C42 %1013.5 hPa48.3 kmSW (230°)37 km/h50.1 km/hMostly Cloudy
4:00 PM4 °C-7 °C45 %1012.9 hPa48.3 kmWSW (250°)42.6 km/h57.5 km/hMostly Cloudy
5:00 PM4.4 °C-5.6 °C35 %1012.2 hPaSW (230°)24.1 km/h
5:00 PM5 °C-6 °C45 %1012.5 hPa48.3 kmWSW (240°)35.2 km/h46.3 km/hMostly Cloudy
6:00 PM4 °C-6 °C49 %1012.5 hPa48.3 kmWSW (240°)27.8 km/h46.3 km/hMostly Cloudy
7:00 PM4 °C-5 °C52 %1012.5 hPa48.3 kmWSW (250°)22.2 km/hOvercast
8:00 PM3.3 °C-3.9 °C47 %1012.5 hPaSW (220°)11.1 km/h
8:00 PM3 °C-4 °C60 %1012.9 hPa24.1 kmSouth (190°)18.5 km/h31.5 km/hOvercast
9:00 PM2 °C-1 °C81 %1013.5 hPa24.1 kmSW (220°)22.2 km/h33.3 km/hOvercast
10:00 PM2 °C-1 °C81 %1013.2 hPa24.1 kmWSW (240°)13 km/hOvercast
11:00 PM2.2 °C0 °C78 %1012.2 hPaSW (230°)11.1 km/h
11:00 PM2 °C-1 °C81 %1012.2 hPa24.1 kmSW (230°)22.2 km/h31.5 km/hOvercast
Hourly data recorded from CYQB, located 0 kilometers away from Quebec City, Quebec







STORIES FROM OUR PARTNERS